#�ϑ�����,���ϕ���,���ϕ���,�ő啗��,�ő啗����������,�ő�u�ԕ���,�ő�u�ԕ�����������
#(�N����),(m/s)   ,(16����),(m/s)   ,(16����)        ,(m/s)       ,(16����)            
2013/9/13 0:01,0,16,0,10,0.1,3
2013/9/13 0:02,0,1,0,11,0.4,2
2013/9/13 0:03,0.1,1,0.1,13,0.8,5
2013/9/13 0:04,0.1,2,0.1,14,0.6,6
2013/9/13 0:05,0.1,2,0.1,1,0.6,2
2013/9/13 0:06,0.1,2,0.1,1,0.4,2
2013/9/13 0:07,0.1,3,0.1,1,0.1,1
2013/9/13 0:08,0.2,2,0.2,2,0.4,16
2013/9/13 0:09,0.2,2,0.2,2,0.3,16
2013/9/13 0:10,0.2,2,0.2,2,0.4,15
2013/9/13 0:11,0.2,2,0.2,2,0.1,2
2013/9/13 0:12,0.2,2,0.2,2,0.4,15
2013/9/13 0:13,0.1,1,0.2,2,0.5,16
2013/9/13 0:14,0.1,1,0.1,2,0.4,16
2013/9/13 0:15,0.1,1,0.1,2,0.1,5
2013/9/13 0:16,0.1,1,0.1,2,0.4,1
2013/9/13 0:17,0.1,1,0.1,2,0.3,1
2013/9/13 0:18,0.1,1,0.1,2,0.4,16
2013/9/13 0:19,0.1,1,0.1,2,0.4,15
2013/9/13 0:20,0.1,1,0.1,2,0.6,15
2013/9/13 0:21,0.1,16,0.1,2,0.1,12
2013/9/13 0:22,0.1,16,0.1,2,0,14
2013/9/13 0:23,0.1,15,0.1,1,0.3,9
2013/9/13 0:24,0.1,15,0.1,1,0.1,11
2013/9/13 0:25,0.1,14,0.1,1,0.1,13
2013/9/13 0:26,0.1,14,0.1,1,0.1,15
2013/9/13 0:27,0.1,13,0.1,1,0.8,9
2013/9/13 0:28,0.1,12,0.1,1,0.8,9
2013/9/13 0:29,0.2,11,0.2,11,0.6,9
2013/9/13 0:30,0.2,11,0.2,11,0.5,9
2013/9/13 0:31,0.2,10,0.2,11,0.1,9
2013/9/13 0:32,0.2,10,0.2,11,0.4,12
2013/9/13 0:33,0.2,10,0.2,11,0.4,12
2013/9/13 0:34,0.2,11,0.2,11,0.1,13
2013/9/13 0:35,0.2,11,0.2,11,0.3,11
2013/9/13 0:36,0.2,11,0.2,11,0.6,11
2013/9/13 0:37,0.2,11,0.2,11,0.5,11
2013/9/13 0:38,0.2,11,0.2,11,0.1,13
2013/9/13 0:39,0.1,12,0.2,11,0.1,12
2013/9/13 0:40,0.1,12,0.1,11,0.1,15
2013/9/13 0:41,0.1,12,0.1,10,0,13
2013/9/13 0:42,0.1,13,0.1,10,0.1,12
2013/9/13 0:43,0.1,13,0.1,10,0.8,11
2013/9/13 0:44,0.2,12,0.2,11,0.8,10
2013/9/13 0:45,0.2,12,0.2,11,0.6,10
2013/9/13 0:46,0.2,12,0.2,11,0.6,10
2013/9/13 0:47,0.2,12,0.2,11,0.4,11
2013/9/13 0:48,0.2,12,0.2,11,0.4,14
2013/9/13 0:49,0.2,12,0.2,12,0.6,14
2013/9/13 0:50,0.3,12,0.3,12,0.5,12
2013/9/13 0:51,0.3,11,0.3,12,0.4,11
2013/9/13 0:52,0.3,11,0.3,12,0.4,9
2013/9/13 0:53,0.2,11,0.3,12,0.1,14
2013/9/13 0:54,0.2,11,0.2,12,0.8,8
2013/9/13 0:55,0.2,11,0.2,12,0.5,8
2013/9/13 0:56,0.2,10,0.2,12,0.5,8
2013/9/13 0:57,0.2,10,0.2,12,0.3,9
2013/9/13 0:58,0.2,10,0.2,12,0.1,13
2013/9/13 0:59,0.1,10,0.2,12,0.1,10
2013/9/13 1:00,0.1,10,0.1,12,0.4,10
2013/9/13 1:01,0.1,9,0.1,11,0.4,6
2013/9/13 1:02,0.1,9,0.1,11,0.5,6
2013/9/13 1:03,0.2,8,0.2,11,0.5,4
2013/9/13 1:04,0.2,7,0.2,11,0.6,4
2013/9/13 1:05,0.2,6,0.2,11,0.8,3
2013/9/13 1:06,0.2,5,0.2,10,0.5,3
2013/9/13 1:07,0.2,4,0.2,10,0.4,3
2013/9/13 1:08,0.3,4,0.3,4,0.4,1
2013/9/13 1:09,0.3,3,0.3,4,0.6,1
2013/9/13 1:10,0.3,3,0.3,4,0.9,16
2013/9/13 1:11,0.4,2,0.4,3,1,16
2013/9/13 1:12,0.5,2,0.5,2,1.1,16
2013/9/13 1:13,0.5,2,0.5,2,1,16
2013/9/13 1:14,0.5,1,0.5,2,0.9,1
2013/9/13 1:15,0.5,1,0.5,2,0.5,16
2013/9/13 1:16,0.5,1,0.5,2,0.6,2
2013/9/13 1:17,0.5,1,0.5,2,0.6,2
2013/9/13 1:18,0.6,1,0.6,1,0.9,1
2013/9/13 1:19,0.6,1,0.6,1,0.9,1
2013/9/13 1:20,0.6,1,0.6,1,1,1
2013/9/13 1:21,0.6,1,0.6,1,0.9,1
2013/9/13 1:22,0.5,1,0.6,1,0.5,3
2013/9/13 1:23,0.5,1,0.5,1,0.8,2
2013/9/13 1:24,0.4,1,0.5,1,0.5,2
2013/9/13 1:25,0.4,2,0.4,1,0.1,4
2013/9/13 1:26,0.4,2,0.4,1,0.6,4
2013/9/13 1:27,0.4,2,0.4,1,0.4,3
2013/9/13 1:28,0.3,2,0.4,1,0.5,2
2013/9/13 1:29,0.3,2,0.3,1,0.3,16
2013/9/13 1:30,0.2,2,0.3,1,0.5,16
2013/9/13 1:31,0.2,2,0.2,1,0.5,16
2013/9/13 1:32,0.2,2,0.2,1,0.5,2
2013/9/13 1:33,0.2,2,0.2,1,0.4,1
2013/9/13 1:34,0.2,2,0.2,1,0.4,2
2013/9/13 1:35,0.2,2,0.2,2,0.3,2
2013/9/13 1:36,0.2,2,0.2,2,0.1,3
2013/9/13 1:37,0.1,2,0.2,2,0,16
2013/9/13 1:38,0.1,1,0.1,2,0,16
2013/9/13 1:39,0.1,1,0.1,2,0.1,12
2013/9/13 1:40,0.1,1,0.1,2,0.3,10
2013/9/13 1:41,0.1,1,0.1,2,0.4,10
2013/9/13 1:42,0.1,16,0.1,2,0.1,10
2013/9/13 1:43,0.1,14,0.1,2,0.3,14
2013/9/13 1:44,0,13,0.1,2,0.1,10
2013/9/13 1:45,0.1,13,0.1,2,0.4,14
2013/9/13 1:46,0.1,13,0.1,2,0.4,16
2013/9/13 1:47,0.1,13,0.1,1,0.4,14
2013/9/13 1:48,0.1,13,0.1,1,0.5,16
2013/9/13 1:49,0.2,13,0.2,13,0.9,16
2013/9/13 1:50,0.2,14,0.2,13,0.8,15
2013/9/13 1:51,0.2,14,0.2,13,0.1,8
2013/9/13 1:52,0.2,14,0.2,13,0.1,10
2013/9/13 1:53,0.2,14,0.2,13,0.5,10
2013/9/13 1:54,0.2,14,0.2,13,0.5,9
2013/9/13 1:55,0.2,13,0.2,13,0.8,10
2013/9/13 1:56,0.3,13,0.3,13,1,12
2013/9/13 1:57,0.3,12,0.3,13,0.8,12
2013/9/13 1:58,0.3,11,0.3,13,0.5,10
2013/9/13 1:59,0.3,11,0.3,13,0.8,9
2013/9/13 2:00,0.3,11,0.3,13,0.9,9
2013/9/13 2:01,0.3,11,0.3,13,0.8,7
2013/9/13 2:02,0.4,11,0.4,11,1.1,10
2013/9/13 2:03,0.4,11,0.4,11,0.6,10
2013/9/13 2:04,0.4,11,0.4,11,0.8,11
2013/9/13 2:05,0.4,11,0.4,11,0.4,12
2013/9/13 2:06,0.4,11,0.4,11,0.8,12
2013/9/13 2:07,0.4,11,0.4,11,0.9,12
2013/9/13 2:08,0.4,11,0.4,11,0.9,12
2013/9/13 2:09,0.4,11,0.4,11,0.8,13
2013/9/13 2:10,0.4,11,0.4,11,0.8,8
2013/9/13 2:11,0.4,11,0.4,11,0.5,11
2013/9/13 2:12,0.4,11,0.4,11,1.1,10
2013/9/13 2:13,0.4,11,0.4,11,0.8,9
2013/9/13 2:14,0.4,11,0.4,11,0.6,12
2013/9/13 2:15,0.5,11,0.5,11,1.3,9
2013/9/13 2:16,0.5,11,0.5,11,1,9
2013/9/13 2:17,0.5,11,0.5,11,0.9,11
2013/9/13 2:18,0.5,10,0.5,11,1,11
2013/9/13 2:19,0.5,10,0.5,11,1,9
2013/9/13 2:20,0.4,10,0.5,11,0.6,7
2013/9/13 2:21,0.4,10,0.4,11,0.4,10
2013/9/13 2:22,0.4,10,0.4,11,0.9,9
2013/9/13 2:23,0.4,10,0.4,11,0.4,7
2013/9/13 2:24,0.4,10,0.4,11,1,9
2013/9/13 2:25,0.4,10,0.5,11,0.9,10
2013/9/13 2:26,0.4,10,0.4,11,0.6,11
2013/9/13 2:27,0.4,10,0.4,11,0.6,9
2013/9/13 2:28,0.4,10,0.4,10,1,8
2013/9/13 2:29,0.4,10,0.4,10,0.9,10
2013/9/13 2:30,0.4,10,0.4,10,0.8,7
2013/9/13 2:31,0.4,10,0.4,10,0.6,7
2013/9/13 2:32,0.4,10,0.4,10,0.6,9
2013/9/13 2:33,0.4,10,0.4,10,0,9
2013/9/13 2:34,0.3,10,0.4,10,0,9
2013/9/13 2:35,0.3,9,0.3,10,0.1,8
2013/9/13 2:36,0.2,9,0.3,10,0,7
2013/9/13 2:37,0.2,8,0.2,10,0.4,6
2013/9/13 2:38,0.2,8,0.2,10,0.3,6
2013/9/13 2:39,0.1,8,0.2,10,0,4
2013/9/13 2:40,0.1,8,0.1,10,0.1,12
2013/9/13 2:41,0,8,0.1,10,0.1,12
2013/9/13 2:42,0,8,0,10,0.1,12
2013/9/13 2:43,0,9,0,10,0.5,11
2013/9/13 2:44,0.1,10,0.1,10,0.5,10
2013/9/13 2:45,0.1,11,0.1,9,0.4,10
2013/9/13 2:46,0.1,11,0.1,9,0.5,12
2013/9/13 2:47,0.1,12,0.1,8,0.4,13
2013/9/13 2:48,0.2,12,0.2,8,0.6,12
2013/9/13 2:49,0.2,12,0.2,12,0.5,14
2013/9/13 2:50,0.3,13,0.3,12,1.1,16
2013/9/13 2:51,0.4,13,0.4,13,1.1,16
2013/9/13 2:52,0.5,13,0.5,13,1.5,1
2013/9/13 2:53,0.5,14,0.5,13,1.1,1
2013/9/13 2:54,0.5,14,0.5,13,0.6,16
2013/9/13 2:55,0.5,15,0.5,13,0.5,16
2013/9/13 2:56,0.5,15,0.5,13,0.5,1
2013/9/13 2:57,0.5,16,0.5,13,0.6,16
2013/9/13 2:58,0.5,16,0.5,13,0.5,16
2013/9/13 2:59,0.5,16,0.5,13,0.8,16
2013/9/13 3:00,0.4,1,0.5,13,0.8,16
2013/9/13 3:01,0.4,1,0.4,13,0.8,16
2013/9/13 3:02,0.4,1,0.4,13,0.8,1
2013/9/13 3:03,0.4,1,0.4,14,0.9,16
2013/9/13 3:04,0.4,1,0.4,15,0.6,1
2013/9/13 3:05,0.4,1,0.4,15,0.8,2
2013/9/13 3:06,0.4,1,0.4,16,0.5,2
2013/9/13 3:07,0.4,1,0.4,16,0.4,1
2013/9/13 3:08,0.4,1,0.4,16,0.3,16
2013/9/13 3:09,0.4,1,0.4,16,0.3,16
2013/9/13 3:10,0.3,1,0.4,1,0.1,16
2013/9/13 3:11,0.3,1,0.3,1,0,1
2013/9/13 3:12,0.2,1,0.3,1,0.1,2
2013/9/13 3:13,0.2,1,0.2,1,0.1,3
2013/9/13 3:14,0.1,1,0.2,1,0.4,6
2013/9/13 3:15,0.1,2,0.1,1,0.3,5
2013/9/13 3:16,0,2,0.1,1,0.1,8
2013/9/13 3:17,0,1,0,1,0,10
2013/9/13 3:18,0,1,0,1,0.1,15
2013/9/13 3:19,0,1,0,1,0.1,14
2013/9/13 3:20,0,1,0,1,0.4,9
2013/9/13 3:21,0.1,16,0.1,1,0.8,9
2013/9/13 3:22,0.1,10,0.1,1,0.9,8
2013/9/13 3:23,0.2,10,0.2,1,1.5,9
2013/9/13 3:24,0.3,11,0.3,11,1.5,10
2013/9/13 3:25,0.3,11,0.3,11,1,10
2013/9/13 3:26,0.4,11,0.4,11,1.5,10
2013/9/13 3:27,0.5,11,0.5,11,2,11
2013/9/13 3:28,0.7,10,0.7,11,2.4,10
2013/9/13 3:29,0.8,10,0.8,10,1.8,11
2013/9/13 3:30,0.8,10,0.9,10,1,12
2013/9/13 3:31,0.9,11,0.9,10,1.1,13
2013/9/13 3:32,0.9,11,0.9,10,1.1,12
2013/9/13 3:33,0.9,11,0.9,10,0.9,12
2013/9/13 3:34,0.8,11,0.9,10,0.5,12
2013/9/13 3:35,0.8,11,0.8,10,0.4,12
2013/9/13 3:36,0.7,12,0.8,10,0.5,13
2013/9/13 3:37,0.6,12,0.7,10,0.4,14
2013/9/13 3:38,0.4,12,0.6,10,0,13
2013/9/13 3:39,0.3,12,0.4,10,0,13
2013/9/13 3:40,0.2,12,0.3,10,0,7
2013/9/13 3:41,0.2,13,0.2,11,0,2
2013/9/13 3:42,0.1,14,0.2,11,0.1,1
2013/9/13 3:43,0.1,15,0.1,11,0.4,3
2013/9/13 3:44,0.1,16,0.1,11,0.4,3
2013/9/13 3:45,0.1,1,0.1,11,0.4,3
2013/9/13 3:46,0.1,2,0.1,12,0.5,4
2013/9/13 3:47,0.1,2,0.1,12,0.6,6
2013/9/13 3:48,0.1,3,0.1,12,0.5,6
2013/9/13 3:49,0.1,3,0.1,12,0.4,5
2013/9/13 3:50,0.2,3,0.2,13,0.4,6
2013/9/13 3:51,0.2,4,0.2,13,0.8,5
2013/9/13 3:52,0.2,4,0.2,3,0.5,9
2013/9/13 3:53,0.2,5,0.2,3,0.3,6
2013/9/13 3:54,0.2,6,0.2,3,0.1,11
2013/9/13 3:55,0.2,6,0.2,3,0,10
2013/9/13 3:56,0.2,6,0.2,3,0.8,5
2013/9/13 3:57,0.2,6,0.2,3,0.8,6
2013/9/13 3:58,0.2,7,0.2,3,0.6,8
2013/9/13 3:59,0.2,7,0.2,3,0.3,10
2013/9/13 4:00,0.2,8,0.2,3,0.1,12
2013/9/13 4:01,0.1,9,0.2,4,0,11
2013/9/13 4:02,0.1,10,0.1,4,0.1,11
2013/9/13 4:03,0.1,10,0.1,5,0.4,11
2013/9/13 4:04,0.2,11,0.2,6,0.4,11
2013/9/13 4:05,0.2,11,0.2,6,0.3,11
2013/9/13 4:06,0.2,11,0.2,6,0.6,14
2013/9/13 4:07,0.1,12,0.1,6,0.5,15
2013/9/13 4:08,0.1,12,0.1,7,0.9,15
2013/9/13 4:09,0.2,13,0.2,8,1,16
2013/9/13 4:10,0.3,13,0.3,13,1.3,16
2013/9/13 4:11,0.3,13,0.3,13,1.1,15
2013/9/13 4:12,0.4,14,0.4,14,1.8,15
2013/9/13 4:13,0.5,14,0.5,14,1.8,16
2013/9/13 4:14,0.6,15,0.6,14,1.8,16
2013/9/13 4:15,0.7,15,0.7,15,1.6,16
2013/9/13 4:16,0.8,15,0.8,15,1.5,16
2013/9/13 4:17,0.9,15,0.9,15,1.6,16
2013/9/13 4:18,1,16,1,15,1.5,15
2013/9/13 4:19,1,16,1,15,1.3,1
2013/9/13 4:20,1,16,1,15,1.1,1
2013/9/13 4:21,1,16,1,15,1.4,16
2013/9/13 4:22,1,16,1,15,1.3,1
2013/9/13 4:23,0.9,16,1,15,1.1,1
2013/9/13 4:24,0.8,16,0.9,15,0.8,1
2013/9/13 4:25,0.7,1,0.8,15,0.3,3
2013/9/13 4:26,0.6,1,0.7,15,0,4
2013/9/13 4:27,0.5,1,0.6,15,0.4,10
2013/9/13 4:28,0.4,1,0.5,16,0.8,10
2013/9/13 4:29,0.4,1,0.4,16,0.9,9
2013/9/13 4:30,0.4,2,0.4,16,0.9,10
2013/9/13 4:31,0.4,7,0.4,16,0.8,9
2013/9/13 4:32,0.4,9,0.4,16,0.6,9
2013/9/13 4:33,0.4,9,0.4,16,0.9,9
2013/9/13 4:34,0.4,9,0.4,16,1.3,9
2013/9/13 4:35,0.5,9,0.5,1,1,9
2013/9/13 4:36,0.6,9,0.6,1,1.5,9
2013/9/13 4:37,0.7,9,0.7,9,1.3,8
2013/9/13 4:38,0.7,9,0.7,9,1.1,8
2013/9/13 4:39,0.7,9,0.7,9,1.1,10
2013/9/13 4:40,0.6,9,0.7,9,0.8,8
2013/9/13 4:41,0.6,10,0.6,9,0.8,10
2013/9/13 4:42,0.6,10,0.6,9,0.8,11
2013/9/13 4:43,0.7,10,0.7,9,1,10
2013/9/13 4:44,0.7,10,0.7,9,1.4,11
2013/9/13 4:45,0.7,10,0.7,9,1.5,12
2013/9/13 4:46,0.7,10,0.7,9,1.5,12
2013/9/13 4:47,0.8,10,0.8,10,2.2,10
2013/9/13 4:48,0.9,11,0.9,11,1.6,10
2013/9/13 4:49,0.9,11,0.9,11,1.6,11
2013/9/13 4:50,1,11,1,11,1.5,10
2013/9/13 4:51,1.1,11,1.1,11,1.9,10
2013/9/13 4:52,1.2,11,1.2,11,2.1,11
2013/9/13 4:53,1.3,11,1.3,11,2.5,11
2013/9/13 4:54,1.4,11,1.4,11,2,11
2013/9/13 4:55,1.4,11,1.4,11,2.4,10
2013/9/13 4:56,1.4,11,1.4,11,2.1,9
2013/9/13 4:57,1.4,11,1.4,11,1.5,11
2013/9/13 4:58,1.4,11,1.4,11,1.5,11
2013/9/13 4:59,1.3,11,1.4,11,1,14
2013/9/13 5:00,1.3,11,1.3,11,1.6,12
2013/9/13 5:01,1.2,11,1.3,11,1,12
2013/9/13 5:02,1,11,1.2,11,0.3,5
2013/9/13 5:03,0.9,11,1,11,0.1,9
2013/9/13 5:04,0.7,11,0.8,11,0.1,10
2013/9/13 5:05,0.5,11,0.7,11,0.1,6
2013/9/13 5:06,0.4,11,0.5,11,0,4
2013/9/13 5:07,0.3,12,0.4,11,0.4,1
2013/9/13 5:08,0.2,14,0.3,11,0.8,16
2013/9/13 5:09,0.2,16,0.2,11,0.8,16
2013/9/13 5:10,0.2,2,0.2,11,1.1,3
2013/9/13 5:11,0.3,2,0.3,11,1.1,3
2013/9/13 5:12,0.4,2,0.4,11,1.4,3
2013/9/13 5:13,0.5,2,0.5,11,1.5,3
2013/9/13 5:14,0.7,2,0.7,11,1.5,3
2013/9/13 5:15,0.8,2,0.8,2,1.4,3
2013/9/13 5:16,0.8,2,0.8,2,0.9,2
2013/9/13 5:17,0.9,2,0.9,2,0.6,1
2013/9/13 5:18,0.9,2,0.9,2,0.6,16
2013/9/13 5:19,0.9,2,0.9,2,0.9,16
2013/9/13 5:20,0.8,2,0.9,2,0.8,1
2013/9/13 5:21,0.8,2,0.8,2,0.9,16
2013/9/13 5:22,0.7,1,0.8,2,0.8,16
2013/9/13 5:23,0.6,1,0.7,2,0.9,16
2013/9/13 5:24,0.5,1,0.6,2,0.9,16
2013/9/13 5:25,0.5,1,0.5,2,1,16
2013/9/13 5:26,0.5,16,0.5,2,1.4,16
2013/9/13 5:27,0.6,16,0.6,2,1,16
2013/9/13 5:28,0.6,16,0.6,2,0.6,1
2013/9/13 5:29,0.6,1,0.6,2,0.6,2
2013/9/13 5:30,0.6,1,0.6,2,0.6,16
2013/9/13 5:31,0.5,1,0.6,2,0.6,1
2013/9/13 5:32,0.5,1,0.5,1,0.3,16
2013/9/13 5:33,0.5,16,0.5,1,0.1,14
2013/9/13 5:34,0.4,16,0.5,16,0.1,14
2013/9/13 5:35,0.3,16,0.4,16,0.5,10
2013/9/13 5:36,0.3,16,0.3,16,1.1,9
2013/9/13 5:37,0.4,15,0.4,16,2.7,9
2013/9/13 5:38,0.6,13,0.6,16,3.3,9
2013/9/13 5:39,0.7,11,0.7,11,3.2,8
2013/9/13 5:40,0.8,10,0.8,11,3.9,9
2013/9/13 5:41,0.9,10,0.9,10,3.9,10
2013/9/13 5:42,1.2,10,1.2,10,3.5,10
2013/9/13 5:43,1.3,10,1.3,10,2.1,10
2013/9/13 5:44,1.4,9,1.4,10,2.2,10
2013/9/13 5:45,1.4,9,1.4,10,1.3,10
2013/9/13 5:46,1.5,9,1.5,9,1.6,10
2013/9/13 5:47,1.4,9,1.5,9,1.9,10
2013/9/13 5:48,1.3,9,1.4,9,2.2,10
2013/9/13 5:49,1.2,10,1.3,9,1.5,10
2013/9/13 5:50,1.1,10,1.2,9,0.9,8
2013/9/13 5:51,1,10,1.1,9,1.3,12
2013/9/13 5:52,0.9,10,0.9,9,1.5,11
2013/9/13 5:53,0.8,10,0.9,9,1.3,12
2013/9/13 5:54,0.7,11,0.8,9,0.5,11
2013/9/13 5:55,0.7,11,0.7,9,1.1,1
2013/9/13 5:56,0.7,12,0.7,9,1.1,16
2013/9/13 5:57,0.7,12,0.8,9,1.5,15
2013/9/13 5:58,0.7,13,0.7,10,1,14
2013/9/13 5:59,0.7,13,0.7,10,1.1,16
2013/9/13 6:00,0.8,14,0.8,10,1.1,1
2013/9/13 6:01,0.7,15,0.8,10,0.9,1
2013/9/13 6:02,0.7,15,0.7,10,1.3,16
2013/9/13 6:03,0.7,16,0.7,10,1.5,1
2013/9/13 6:04,0.7,16,0.7,12,1.4,2
2013/9/13 6:05,0.8,1,0.8,12,1.1,2
2013/9/13 6:06,0.8,1,0.8,12,1.1,2
2013/9/13 6:07,0.8,1,0.8,14,1.4,3
2013/9/13 6:08,0.8,2,0.8,14,1.5,3
2013/9/13 6:09,0.9,2,0.9,2,1.8,3
2013/9/13 6:10,0.9,2,0.9,2,1.6,3
2013/9/13 6:11,1,2,1,2,1.5,3
2013/9/13 6:12,1,3,1,2,1.3,5
2013/9/13 6:13,1,3,1,2,1.1,5
2013/9/13 6:14,1,3,1.1,3,1.6,3
2013/9/13 6:15,1,3,1,3,0.9,6
2013/9/13 6:16,1,4,1,3,1.6,5
2013/9/13 6:17,1,4,1,3,1.5,4
2013/9/13 6:18,1,4,1,3,1.8,3
2013/9/13 6:19,1.1,4,1.1,3,2,3
2013/9/13 6:20,1.1,4,1.1,3,1.9,3
2013/9/13 6:21,1.1,4,1.1,3,2.1,3
2013/9/13 6:22,1.2,4,1.2,4,2.4,3
2013/9/13 6:23,1.3,4,1.3,4,2.1,3
2013/9/13 6:24,1.3,3,1.3,4,1.3,3
2013/9/13 6:25,1.3,3,1.3,4,1.4,3
2013/9/13 6:26,1.3,3,1.3,4,1.8,3
2013/9/13 6:27,1.2,3,1.3,4,0.8,1
2013/9/13 6:28,1.1,2,1.2,4,0.8,2
2013/9/13 6:29,1,2,1.1,4,0.5,6
2013/9/13 6:30,0.9,2,1,4,0.5,2
2013/9/13 6:31,0.7,2,0.8,4,0.5,4
2013/9/13 6:32,0.5,2,0.7,4,0.3,5
2013/9/13 6:33,0.4,2,0.5,4,0.3,10
2013/9/13 6:34,0.3,2,0.4,3,0.9,10
2013/9/13 6:35,0.3,15,0.3,3,0.9,11
2013/9/13 6:36,0.3,12,0.3,3,0.8,11
2013/9/13 6:37,0.3,11,0.3,3,0.9,10
2013/9/13 6:38,0.3,11,0.3,2,0.1,10
2013/9/13 6:39,0.3,11,0.3,2,0.5,11
2013/9/13 6:40,0.3,11,0.3,2,0.3,11
2013/9/13 6:41,0.3,11,0.3,2,0.4,11
2013/9/13 6:42,0.3,11,0.3,2,0.5,10
2013/9/13 6:43,0.3,11,0.3,2,0.5,10
2013/9/13 6:44,0.3,11,0.3,1,0.4,10
2013/9/13 6:45,0.3,11,0.3,15,0.8,9
2013/9/13 6:46,0.2,11,0.3,12,0.5,5
2013/9/13 6:47,0.2,11,0.2,11,1,9
2013/9/13 6:48,0.3,11,0.3,11,1,10
2013/9/13 6:49,0.3,11,0.3,11,1.1,9
2013/9/13 6:50,0.4,10,0.4,10,1.5,9
2013/9/13 6:51,0.5,10,0.5,10,1.5,9
2013/9/13 6:52,0.5,10,0.5,10,1.4,9
2013/9/13 6:53,0.5,10,0.5,10,1.1,11
2013/9/13 6:54,0.6,10,0.6,10,1.4,9
2013/9/13 6:55,0.7,9,0.7,9,1.4,9
2013/9/13 6:56,0.8,9,0.8,9,1.5,8
2013/9/13 6:57,0.8,9,0.8,9,1.5,8
2013/9/13 6:58,0.9,9,0.9,9,1.9,8
2013/9/13 6:59,1,9,1,9,2,9
2013/9/13 7:00,1,9,1,9,1.9,9
2013/9/13 7:01,1.1,9,1.1,9,1.8,9
2013/9/13 7:02,1.1,9,1.1,9,1.9,9
2013/9/13 7:03,1.1,9,1.1,9,1.1,8
2013/9/13 7:04,1,9,1.1,9,0.8,9
2013/9/13 7:05,1,9,1,9,0.9,9
2013/9/13 7:06,0.9,9,1,9,0.8,9
2013/9/13 7:07,0.8,10,0.9,9,0.1,10
2013/9/13 7:08,0.7,10,0.8,9,0.1,15
2013/9/13 7:09,0.6,10,0.7,9,0.8,15
2013/9/13 7:10,0.5,11,0.6,9,0.9,15
2013/9/13 7:11,0.4,12,0.5,9,0.8,1
2013/9/13 7:12,0.3,12,0.4,9,0.5,15
2013/9/13 7:13,0.3,13,0.4,9,0.9,15
2013/9/13 7:14,0.3,13,0.3,9,0.5,12
2013/9/13 7:15,0.3,14,0.3,9,1,16
2013/9/13 7:16,0.3,14,0.3,9,0.5,14
2013/9/13 7:17,0.3,14,0.3,10,0.4,15
2013/9/13 7:18,0.3,15,0.3,10,0.3,16
2013/9/13 7:19,0.3,14,0.3,10,0.4,9
2013/9/13 7:20,0.3,14,0.3,11,1,11
2013/9/13 7:21,0.4,14,0.4,12,0.9,11
2013/9/13 7:22,0.4,13,0.4,13,1.4,9
2013/9/13 7:23,0.5,12,0.5,12,2.4,10
2013/9/13 7:24,0.7,12,0.7,12,2.6,10
2013/9/13 7:25,0.8,11,0.8,11,2.5,10
2013/9/13 7:26,0.9,10,0.9,11,2.6,9
2013/9/13 7:27,1.1,10,1.1,10,2.4,9
2013/9/13 7:28,1.1,10,1.1,10,1.8,10
2013/9/13 7:29,1.3,10,1.3,10,2.5,10
2013/9/13 7:30,1.4,10,1.4,10,2.6,8
2013/9/13 7:31,1.5,9,1.5,9,2.6,10
2013/9/13 7:32,1.5,10,1.5,9,1.8,10
2013/9/13 7:33,1.5,10,1.5,9,2.6,10
2013/9/13 7:34,1.5,10,1.5,9,1.9,11
2013/9/13 7:35,1.4,10,1.5,9,2.2,9
2013/9/13 7:36,1.4,10,1.4,9,2,11
2013/9/13 7:37,1.4,10,1.4,9,2.5,10
2013/9/13 7:38,1.4,10,1.4,9,2.1,10
2013/9/13 7:39,1.4,10,1.4,9,2.2,10
2013/9/13 7:40,1.3,10,1.4,9,1.8,10
2013/9/13 7:41,1.3,10,1.3,9,1.9,10
2013/9/13 7:42,1.2,10,1.3,10,1.5,10
2013/9/13 7:43,1.2,10,1.3,10,2.2,8
2013/9/13 7:44,1.2,10,1.2,10,2,9
2013/9/13 7:45,1.1,10,1.2,10,1.5,10
2013/9/13 7:46,1.1,10,1.1,10,1.9,10
2013/9/13 7:47,1.1,10,1.1,10,1.6,9
2013/9/13 7:48,1.1,10,1.1,10,1,10
2013/9/13 7:49,1,10,1,10,1.3,10
2013/9/13 7:50,1,10,1,10,1.3,10
2013/9/13 7:51,0.9,10,1,10,1,9
2013/9/13 7:52,0.9,10,0.9,10,1.1,9
2013/9/13 7:53,0.9,10,0.9,10,1,8
2013/9/13 7:54,0.9,10,0.9,10,1.4,9
2013/9/13 7:55,0.8,10,0.9,10,0.5,8
2013/9/13 7:56,0.7,10,0.8,10,0.8,8
2013/9/13 7:57,0.6,9,0.7,10,0.8,8
2013/9/13 7:58,0.5,10,0.6,10,0.3,1
2013/9/13 7:59,0.5,10,0.5,10,0.6,14
2013/9/13 8:00,0.4,11,0.5,10,0.5,14
2013/9/13 8:01,0.3,11,0.4,10,0.3,16
2013/9/13 8:02,0.3,13,0.3,10,0.4,16
2013/9/13 8:03,0.3,14,0.3,10,0.9,1
2013/9/13 8:04,0.2,15,0.3,10,0.6,16
2013/9/13 8:05,0.2,16,0.2,10,0.4,1
2013/9/13 8:06,0.2,16,0.2,10,0.6,16
2013/9/13 8:07,0.2,16,0.2,9,0.6,16
2013/9/13 8:08,0.2,16,0.2,10,0.3,15
2013/9/13 8:09,0.2,16,0.2,10,0.1,15
2013/9/13 8:10,0.2,16,0.2,11,0.1,1
2013/9/13 8:11,0.2,16,0.2,12,0.4,13
2013/9/13 8:12,0.2,16,0.2,13,0.9,1
2013/9/13 8:13,0.2,16,0.2,14,0.8,16
2013/9/13 8:14,0.2,16,0.2,15,0.8,1
2013/9/13 8:15,0.2,16,0.2,16,0.5,3
2013/9/13 8:16,0.2,16,0.2,16,0.8,2
2013/9/13 8:17,0.2,1,0.2,16,0.4,15
2013/9/13 8:18,0.2,2,0.2,16,0.5,7
2013/9/13 8:19,0.2,2,0.2,16,1,5
2013/9/13 8:20,0.2,3,0.2,16,0.8,6
2013/9/13 8:21,0.2,3,0.2,16,0.9,6
2013/9/13 8:22,0.2,3,0.3,3,0.5,8
2013/9/13 8:23,0.2,4,0.2,3,0.4,12
2013/9/13 8:24,0.2,4,0.2,3,1.1,10
2013/9/13 8:25,0.3,6,0.3,3,1.1,10
2013/9/13 8:26,0.4,8,0.4,8,1.9,9
2013/9/13 8:27,0.5,9,0.5,9,1.8,10
2013/9/13 8:28,0.5,10,0.5,9,1.1,10
2013/9/13 8:29,0.6,10,0.6,10,1.1,10
2013/9/13 8:30,0.6,10,0.6,10,1.6,10
2013/9/13 8:31,0.7,11,0.7,11,1.9,10
2013/9/13 8:32,0.6,11,0.7,11,0.6,9
2013/9/13 8:33,0.7,10,0.7,11,1.6,8
2013/9/13 8:34,0.7,10,0.7,11,0.9,8
2013/9/13 8:35,0.7,9,0.8,9,1.4,7
2013/9/13 8:36,0.7,9,0.7,9,1.1,9
2013/9/13 8:37,0.7,9,0.7,9,1.4,7
2013/9/13 8:38,0.8,9,0.8,9,2.1,8
2013/9/13 8:39,0.9,8,0.9,8,2.6,10
2013/9/13 8:40,1,8,1,8,3,9
2013/9/13 8:41,1,8,1,8,2.6,9
2013/9/13 8:42,1.2,8,1.2,8,2.5,9
2013/9/13 8:43,1.2,8,1.2,8,2,8
2013/9/13 8:44,1.3,8,1.3,8,1.6,8
2013/9/13 8:45,1.3,9,1.3,8,2.2,8
2013/9/13 8:46,1.4,9,1.4,9,2.2,9
2013/9/13 8:47,1.4,9,1.4,9,2,8
2013/9/13 8:48,1.4,9,1.4,9,1.5,8
2013/9/13 8:49,1.3,9,1.4,9,2,10
2013/9/13 8:50,1.2,9,1.3,9,1.5,11
2013/9/13 8:51,1.1,9,1.2,9,1.1,10
2013/9/13 8:52,1,9,1.1,9,1.1,9
2013/9/13 8:53,0.9,9,1,9,1.3,10
2013/9/13 8:54,0.9,10,0.9,9,0.4,12
2013/9/13 8:55,0.7,10,0.8,9,0.8,7
2013/9/13 8:56,0.8,9,0.8,9,3,8
2013/9/13 8:57,0.9,9,0.9,9,2.7,9
2013/9/13 8:58,0.8,9,0.9,9,1.5,9
2013/9/13 8:59,0.9,9,0.9,9,2.5,8
2013/9/13 9:00,0.9,10,0.9,9,2,9
2013/9/13 9:01,1,10,1,9,2.2,11
2013/9/13 9:02,1.2,10,1.2,10,2.5,9
2013/9/13 9:03,1.2,9,1.2,10,1.9,8
2013/9/13 9:04,1.3,9,1.3,9,2,7
2013/9/13 9:05,1.4,9,1.4,9,2.4,9
2013/9/13 9:06,1.2,9,1.4,9,1.8,8
2013/9/13 9:07,1.1,9,1.2,9,1.3,8
2013/9/13 9:08,1.1,9,1.1,9,1.4,9
2013/9/13 9:09,1.1,9,1.1,9,1.6,8
2013/9/13 9:10,1.1,8,1.2,9,2,7
2013/9/13 9:11,1.1,8,1.1,9,2.7,9
2013/9/13 9:12,1.1,8,1.1,9,2.1,9
2013/9/13 9:13,1.1,8,1.1,9,2.1,7
2013/9/13 9:14,1.2,8,1.2,9,2.4,6
2013/9/13 9:15,1.2,8,1.2,9,2.9,8
2013/9/13 9:16,1.4,8,1.4,8,2.7,8
2013/9/13 9:17,1.5,8,1.5,8,1.9,7
2013/9/13 9:18,1.4,8,1.5,8,1.8,8
2013/9/13 9:19,1.5,8,1.5,8,2.5,9
2013/9/13 9:20,1.5,8,1.5,8,2.1,8
2013/9/13 9:21,1.5,8,1.5,8,3.1,8
2013/9/13 9:22,1.5,8,1.5,8,2,11
2013/9/13 9:23,1.4,8,1.4,8,2.9,9
2013/9/13 9:24,1.5,8,1.5,8,2.9,8
2013/9/13 9:25,1.4,8,1.5,8,2.1,6
2013/9/13 9:26,1.3,8,1.4,8,1.9,10
2013/9/13 9:27,1.3,8,1.3,8,1.6,9
2013/9/13 9:28,1.4,8,1.4,8,2.4,10
2013/9/13 9:29,1.3,8,1.3,8,2.4,9
2013/9/13 9:30,1.3,9,1.3,8,2.9,9
2013/9/13 9:31,1.3,9,1.3,8,2.4,9
2013/9/13 9:32,1.2,8,1.3,8,1,6
2013/9/13 9:33,1.2,8,1.3,8,2.5,7
2013/9/13 9:34,1.2,8,1.3,8,2.7,9
2013/9/13 9:35,1.2,8,1.2,8,2,9
2013/9/13 9:36,1.2,8,1.2,8,1.4,7
2013/9/13 9:37,1.1,8,1.2,8,2,9
2013/9/13 9:38,1.1,8,1.1,8,1.8,8
2013/9/13 9:39,1.1,8,1.1,8,1.8,9
2013/9/13 9:40,1,8,1.1,9,1.4,10
2013/9/13 9:41,0.9,8,1,9,0.5,10
2013/9/13 9:42,0.9,9,0.9,8,0.9,12
2013/9/13 9:43,0.9,9,0.9,8,3,9
2013/9/13 9:44,0.9,9,0.9,8,2.9,9
2013/9/13 9:45,1,9,1,8,2.6,9
2013/9/13 9:46,1,9,1,8,2.4,6
2013/9/13 9:47,1.2,9,1.2,9,3.9,9
2013/9/13 9:48,1.3,9,1.3,9,3.7,8
2013/9/13 9:49,1.5,9,1.5,9,3.2,8
2013/9/13 9:50,1.6,9,1.6,9,3.2,7
2013/9/13 9:51,1.7,8,1.7,8,1.8,8
2013/9/13 9:52,1.7,8,1.7,8,0.9,8
2013/9/13 9:53,1.6,8,1.7,8,1.6,8
2013/9/13 9:54,1.5,8,1.6,8,1.9,8
2013/9/13 9:55,1.6,8,1.6,8,4.2,8
2013/9/13 9:56,1.7,8,1.7,8,4.1,7
2013/9/13 9:57,1.7,8,1.7,8,3.7,8
2013/9/13 9:58,1.7,8,1.8,8,3.7,8
2013/9/13 9:59,1.8,8,1.8,8,3.5,9
2013/9/13 10:00,1.7,8,1.8,8,2.4,8
2013/9/13 10:01,1.8,8,1.8,8,2.2,8
2013/9/13 10:02,1.9,8,1.9,8,2.6,7
2013/9/13 10:03,2,8,2,8,2.5,9
2013/9/13 10:04,2,8,2,8,2,11
2013/9/13 10:05,1.9,8,2,8,2.4,9
2013/9/13 10:06,1.8,8,1.9,8,3.7,9
2013/9/13 10:07,1.8,8,1.8,8,3.2,8
2013/9/13 10:08,1.8,9,1.8,8,4.2,9
2013/9/13 10:09,1.6,9,1.7,8,1.6,9
2013/9/13 10:10,1.6,9,1.6,8,2.7,9
2013/9/13 10:11,1.5,9,1.6,8,1.6,10
2013/9/13 10:12,1.5,9,1.5,8,2.6,10
2013/9/13 10:13,1.5,9,1.5,8,2,9
2013/9/13 10:14,1.5,9,1.5,8,2.6,9
2013/9/13 10:15,1.6,9,1.6,8,4.2,8
2013/9/13 10:16,1.7,9,1.7,8,4.2,7
2013/9/13 10:17,1.6,9,1.7,8,2.5,9
2013/9/13 10:18,1.5,9,1.6,9,2.4,8
2013/9/13 10:19,1.6,9,1.6,9,3.5,7
2013/9/13 10:20,1.7,9,1.7,9,3.8,9
2013/9/13 10:21,1.7,9,1.7,9,2.7,9
2013/9/13 10:22,1.7,9,1.7,9,2.7,11
2013/9/13 10:23,1.8,9,1.8,9,3.5,9
2013/9/13 10:24,1.8,9,1.8,9,2.5,9
2013/9/13 10:25,1.8,9,1.8,9,4.8,9
2013/9/13 10:26,1.9,9,1.9,9,3.8,8
2013/9/13 10:27,1.9,9,1.9,9,2.4,8
2013/9/13 10:28,1.8,9,1.9,9,2.2,8
2013/9/13 10:29,1.7,9,1.8,9,2.2,11
2013/9/13 10:30,1.7,9,1.8,9,3,9
2013/9/13 10:31,1.8,8,1.8,9,3,8
2013/9/13 10:32,1.7,8,1.8,9,2.2,7
2013/9/13 10:33,1.6,8,1.7,9,2,7
2013/9/13 10:34,1.6,8,1.6,9,3.9,10
2013/9/13 10:35,1.6,8,1.7,9,3.8,10
2013/9/13 10:36,1.5,8,1.6,9,3.7,10
2013/9/13 10:37,1.5,9,1.5,9,3.3,9
2013/9/13 10:38,1.7,9,1.7,9,3.7,9
2013/9/13 10:39,1.7,9,1.7,9,2,10
2013/9/13 10:40,1.7,9,1.7,9,2.9,9
2013/9/13 10:41,1.6,9,1.7,8,2.2,8
2013/9/13 10:42,1.6,9,1.7,8,1.1,7
2013/9/13 10:43,1.6,9,1.6,8,1.6,8
2013/9/13 10:44,1.5,9,1.6,8,1.9,9
2013/9/13 10:45,1.5,9,1.5,9,2.9,8
2013/9/13 10:46,1.4,9,1.5,9,2.9,9
2013/9/13 10:47,1.4,9,1.4,9,3.9,9
2013/9/13 10:48,1.3,9,1.4,9,4.2,9
2013/9/13 10:49,1.5,9,1.5,9,4.4,9
2013/9/13 10:50,1.5,9,1.5,9,3.8,8
2013/9/13 10:51,1.6,9,1.6,9,3.5,8
2013/9/13 10:52,1.7,9,1.7,9,4.1,9
2013/9/13 10:53,2,9,2,9,4.7,9
2013/9/13 10:54,2.1,9,2.1,9,4.4,9
2013/9/13 10:55,2.1,9,2.2,9,3,9
2013/9/13 10:56,2.1,9,2.1,9,1.3,9
2013/9/13 10:57,2,9,2.1,9,2.2,10
2013/9/13 10:58,1.9,9,2,9,2.2,8
2013/9/13 10:59,1.7,9,1.8,9,3.3,11
2013/9/13 11:00,1.7,9,1.7,9,3.3,10
2013/9/13 11:01,1.7,9,1.7,9,4.7,9
2013/9/13 11:02,1.9,9,1.9,9,5.6,9
2013/9/13 11:03,1.8,9,1.9,9,4.1,11
2013/9/13 11:04,1.8,9,1.8,9,4.1,9
2013/9/13 11:05,1.9,9,1.9,9,4.4,9
2013/9/13 11:06,2.1,9,2.1,9,3.8,8
2013/9/13 11:07,2.3,8,2.3,8,3.6,8
2013/9/13 11:08,2.3,8,2.4,8,2.4,7
2013/9/13 11:09,2.4,8,2.4,8,2.5,6
2013/9/13 11:10,2.4,8,2.4,8,2.4,6
2013/9/13 11:11,2.2,8,2.4,8,2.5,7
2013/9/13 11:12,2.1,8,2.1,8,4.2,9
2013/9/13 11:13,2,8,2.1,8,3.9,8
2013/9/13 11:14,2,8,2.1,8,3.1,8
2013/9/13 11:15,1.8,8,2,8,2.9,8
2013/9/13 11:16,1.8,8,1.8,8,2.9,8
2013/9/13 11:17,1.7,8,1.7,8,2.5,9
2013/9/13 11:18,1.8,8,1.8,8,3.7,8
2013/9/13 11:19,1.8,8,1.8,8,3.3,6
2013/9/13 11:20,2,8,2,8,4.5,8
2013/9/13 11:21,2.1,8,2.1,8,4.1,7